Location: Unnamed
(47.6264°N, 122.3366°W)
Time: 23:15:52
(UTC-07:00)

ELYUSIUM/LOWER FREE FLYE - Pass Details

Date: 08 August 2020
Orbit: 571 x 589 km, 97.7° (Epoch: 21 September)

Event Time Altitude Azimuth Distance (km) Brightness Sun altitude
Exits shadow 22:49:44 46° 155° (SSE) 777 ? -18.8°
Maximum altitude 22:50:54 81° 76° (ENE) 588 ? -19.0°
Drops below altitude 10° 22:55:00 10° 349° (N) 1,896 ? -19.4°
Sets 22:57:10 0° 348° (NNW) 2,802 ? -19.6°
